Location: Limoges
(45.8354°N, 1.2645°E)
Time: 20:24:08
(UTC+02:00)

Courier 1B Rocket - Pass Details

Date: 26 February 2024
Orbit: 920 x 1201 km, 28.2° (Epoch: 20 April)

Event Time Altitude Azimuth Distance (km) Brightness Sun altitude
Rises 06:29:17 0° 243° (WSW) 3,547 - -13.1°
Exits shadow 06:31:57 - 228° (SW) 2,882 7.0 -12.6°
Reaches altitude 10° 06:33:30 10° 216° (SW) 2,605 6.9 -12.4°
Maximum altitude 06:36:07 13° 191° (S) 2,413 7.0 -11.9°
Drops below altitude 10° 06:38:45 10° 165° (SSE) 2,631 7.5 -11.4°
Sets 06:43:04 0° 139° (SE) 3,615 8.7 -10.7°
